This is the latest recevied weather packets stored in our database for station/object KD7AWQ. If no packets are shown the sender has not sent any weather packets the latest 10 day(s).
| Time | Temp. | Humidity | Pressure | Rain* | Wind** | Luminosity | Snow |
|---|---|---|---|---|---|---|---|
| 1778084018 | 16.11° C | 36% | 1185.7 hPa | 0 mm | - | 736 W/m² | - |
| 1778080778 | 15.56° C | 37% | 1185.6 hPa | 0 mm | - | 521 W/m² | - |
| 1778077749 | 14.44° C | 40% | 1185.5 hPa | 0 mm | - | 266 W/m² | - |
| 1778077447 | 14.44° C | 40% | 1185.3 hPa | 0 mm | - | 277 W/m² | - |
| 1778076842 | 13.89° C | 41% | 1185.7 hPa | 0 mm | - | 236 W/m² | - |
| 1778074720 | 13.33° C | 43% | 1185.2 hPa | 0 mm | - | 105 W/m² | - |
| 1778074417 | 12.78° C | 43% | 1184.8 hPa | 0 mm | - | 90 W/m² | - |
| 1778073205 | 11.67° C | 46% | 1185 hPa | 0 mm | - | 49 W/m² | - |
| 1778072902 | 11.67° C | 47% | 1185 hPa | 0 mm | - | 41 W/m² | - |
| 1778070786 | 10.56° C | 48% | 1184.4 hPa | 0 mm | - | 7 W/m² | - |
| 1778069574 | 10.56° C | 47% | 1184.1 hPa | 0 mm | - | 0 W/m² | - |
| 1778069271 | 10.56° C | 47% | 1184.1 hPa | 0 mm | - | 0 W/m² | - |
| 1778068364 | 10.56° C | 46% | 1184.4 hPa | 0 mm | - | 0 W/m² | - |
| 1778068062 | 10.56° C | 45% | 1184.1 hPa | 0 mm | - | 0 W/m² | - |
| 1778067458 | 10.56° C | 44% | 1184.1 hPa | 0 mm | - | 0 W/m² | - |
| 1778066851 | 11.11° C | 44% | 1184.1 hPa | 0 mm | - | 0 W/m² | - |
| 1778066549 | 11.11° C | 44% | 1184.1 hPa | 0 mm | - | 0 W/m² | - |
| 1778063824 | 10.56° C | 48% | 1183.9 hPa | 0 mm | - | 0 W/m² | - |
| 1778063219 | 11.11° C | 48% | 1184 hPa | 0 mm | - | 0 W/m² | - |
| 1778062917 | 11.11° C | 45% | 1183.8 hPa | 0 mm | - | 0 W/m² | - |
| 1778062613 | 11.67° C | 43% | 1183.8 hPa | 0 mm | - | 0 W/m² | - |
| 1778061706 | 11.11° C | 42% | 1183.9 hPa | 0 mm | - | 0 W/m² | - |
| 1778061404 | 11.11° C | 46% | 1183.7 hPa | 0 mm | - | 0 W/m² | - |
| 1778060798 | 10.56° C | 46% | 1183.8 hPa | 0 mm | - | 0 W/m² | - |
| 1778060194 | 10° C | 50% | 1183.7 hPa | 0 mm | - | 0 W/m² | - |
* Rain latest hour (hover to see other rain measurements)
** Current wind speed in m/s (hover to see current wind gust speed)